Wind_Speed
15 13 14 16 16 15 15 15 15 15 15 15 14 13 12 13 14 14 14 14 15 15 15 14 14 13 13 13 12 12 13 12 12 12 13 13 13 12 11 12 12 13 14 15 16 18 18 18 19 19 18 18 18 17 17 17 17 18 19 19 19 19 18 18 18 19 19 19 19 19 19 18 18 18 18 18 17 18 17 17 17 17 17 17 16
16 14 13 14 15 15 14 14 14 14 14 14 14 12 10 11 12 13 13 13 13 13 14 13 13 12 13 13 12 12 13 12 12 13 12 13 13 13 12 13 14 14 15 15 16 18 18 18 17 18 18 18 18 18 17 16 17 17 18 18 18 18 18 17 18 19 19 18 19 19 19 18 18 18 18 18 17 17 16 16 17 17 16 16 16
16 14 13 13 14 15 14 13 13 13 13 13 13 12 11 10 10 10 11 11 11 11 12 12 12 11 11 12 11 12 12 12 12 12 12 13 13 13 14 14 15 15 15 16 17 17 17 17 16 16 17 18 17 17 16 15 16 17 17 17 17 18 18 17 18 18 18 18 18 18 18 18 18 18 18 18 17 16 16 17 17 16 17 17 16
15 14 13 12 13 14 14 13 13 13 12 12 12 12 12 11 10 10 10 10 10 10 10 11 11 11 11 11 11 11 11 12 11 11 12 13 13 14 14 14 15 15 15 15 16 16 17 16 14 15 16 17 17 16 16 15 15 16 16 16 17 17 18 17 17 17 17 18 18 18 18 18 18 18 17 17 17 16 17 17 17 17 16 16 16
14 13 12 12 12 12 14 13 12 12 11 11 11 11 11 10 10 10 9 9 9 9 9 10 11 11 11 11 11 10 10 11 11 11 11 13 14 14 14 14 15 15 15 15 16 16 16 15 14 14 15 16 16 16 15 15 14 15 15 15 16 17 17 17 17 16 17 17 17 17 17 17 18 17 17 17 16 16 17 17 17 17 16 15 15
15 13 12 12 11 11 13 13 12 11 11 10 10 9 9 9 9 9 8 8 8 9 9 9 9 9 10 10 10 10 10 10 11 11 11 13 14 14 14 14 14 15 15 15 15 15 15 15 13 13 14 15 15 15 15 14 14 14 15 15 16 16 16 17 18 18 17 16 16 16 16 15 16 16 16 16 16 16 16 16 16 16 15 15 14
15 13 12 11 11 10 11 12 11 10 10 9 9 8 8 8 8 9 8 7 8 8 8 8 8 8 8 9 10 10 10 10 10 11 12 13 13 13 14 14 14 14 14 15 15 14 14 14 13 13 13 14 14 14 14 14 14 14 14 15 15 15 15 15 16 17 16 15 14 15 15 14 14 14 15 15 15 15 14 14 15 14 14 14 13
14 13 12 10 10 9 10 12 11 10 10 9 8 8 8 8 8 8 7 7 7 7 7 7 7 8 8 8 9 10 10 10 10 11 12 12 12 13 13 13 14 14 14 15 14 13 13 14 14 13 13 13 13 13 13 13 13 14 15 15 15 14 14 14 15 15 15 14 13 14 15 13 12 12 13 13 13 13 13 13 13 13 13 13 12
14 13 12 10 9 10 11 12 11 10 9 9 8 8 8 8 8 7 6 6 7 7 7 7 8 8 9 9 9 10 10 10 10 11 11 11 12 12 12 13 14 14 14 14 14 15 15 16 15 13 13 13 13 13 13 14 14 14 14 14 14 14 14 13 14 14 14 13 13 14 14 13 12 12 12 12 13 12 12 13 13 12 12 13 12
14 13 12 10 10 12 13 12 10 9 8 9 8 7 7 7 7 7 6 6 7 7 7 7 8 8 8 9 9 10 11 10 10 11 10 10 11 11 12 12 13 14 15 15 16 18 18 17 15 14 14 13 13 13 13 14 13 13 13 14 14 14 14 13 14 13 13 13 13 15 14 13 12 12 12 12 12 11 11 13 12 12 12 12 12
14 14 12 11 11 12 12 10 9 8 8 8 8 8 8 8 8 7 7 7 8 7 7 8 8 9 9 9 10 10 10 10 10 10 10 10 11 11 12 12 14 15 16 16 18 19 18 16 15 14 14 14 13 13 13 13 13 12 13 13 13 15 14 13 14 12 12 13 14 14 13 12 11 11 12 12 12 11 11 11 11 11 12 12 12
14 13 11 11 11 11 11 9 8 8 9 9 9 10 9 9 8 7 7 7 8 7 7 8 9 9 9 9 10 10 10 10 11 11 10 10 11 12 12 13 14 16 16 18 19 19 17 16 14 14 13 13 13 13 12 12 12 12 12 12 12 13 13 13 13 11 12 13 15 13 12 11 11 11 11 12 11 11 11 11 11 11 11 11 11
14 13 11 11 10 9 9 9 9 9 10 10 10 11 10 9 8 7 7 7 7 7 7 7 8 9 9 9 10 10 10 10 11 11 11 10 12 12 13 14 15 16 17 18 18 17 16 15 15 14 13 13 13 12 11 11 11 11 11 12 12 13 13 13 13 12 13 13 13 11 10 10 10 11 12 11 11 11 11 11 11 11 11 11 11
14 13 12 10 9 9 9 10 10 11 10 11 11 11 11 10 8 8 8 7 7 7 8 8 8 8 9 10 10 11 11 11 11 12 12 12 13 14 14 14 15 16 17 18 17 16 15 14 14 14 14 13 12 12 12 12 13 13 13 12 13 15 13 11 12 11 12 11 11 10 9 9 10 11 11 11 11 11 11 10 10 10 11 10 10
14 14 11 10 10 10 10 10 11 11 11 11 12 12 11 10 8 8 8 8 7 8 8 8 8 9 10 11 11 12 13 12 12 13 13 13 14 15 15 15 16 16 17 17 16 16 15 14 14 14 14 12 12 13 13 14 15 15 15 12 12 17 13 9 11 11 10 10 10 9 8 8 9 11 11 11 11 10 10 9 9 9 9 8 9
13 12 10 10 10 9 10 10 11 11 12 13 13 13 11 10 9 8 8 7 8 9 8 8 9 10 11 12 12 13 14 14 13 14 14 15 15 16 17 17 18 17 17 16 16 15 14 14 13 13 14 12 12 13 14 15 15 15 15 14 12 17 16 10 9 10 10 10 10 9 7 7 8 10 11 10 10 9 9 8 8 8 7 7 8
10 11 11 10 10 9 10 10 11 11 13 14 14 13 10 10 11 9 8 8 9 10 10 10 10 12 13 14 14 14 15 15 14 15 15 16 16 17 18 18 19 18 17 16 16 15 15 14 13 13 13 12 12 13 13 14 14 14 15 14 13 16 18 13 8 9 10 10 10 8 6 6 7 10 10 9 9 8 8 8 7 7 7 7 7
8 10 12 11 11 9 9 10 11 11 12 15 14 12 12 12 12 10 9 10 11 12 12 12 12 13 14 14 14 15 16 16 16 16 17 17 17 18 18 19 19 18 17 17 16 15 15 14 14 14 13 12 12 12 13 13 13 14 14 14 13 15 18 14 9 10 11 10 8 7 5 6 8 10 9 8 8 8 8 8 8 7 7 7 6
9 10 9 10 11 9 8 10 11 11 12 14 14 12 13 13 12 11 11 13 13 13 14 14 13 14 15 15 16 17 17 17 18 19 19 19 18 18 19 19 18 17 17 17 16 15 15 15 14 13 13 12 12 12 12 12 13 13 14 14 13 15 16 13 10 10 10 8 6 5 6 7 8 9 9 8 9 8 8 7 7 7 7 7 7
10 9 8 7 9 8 9 10 10 10 11 13 14 13 14 14 13 12 12 14 14 13 14 15 15 16 16 17 18 19 19 19 21 20 20 20 19 18 18 18 18 16 16 17 16 15 15 15 14 13 13 12 12 11 11 12 12 12 13 12 11 13 12 10 9 9 9 7 5 5 6 7 8 8 9 9 9 8 7 7 6 6 7 7 7
9 8 8 8 8 8 7 8 9 9 10 13 14 14 15 15 14 13 14 14 14 14 15 16 16 17 18 18 19 20 20 20 21 21 20 20 19 19 18 18 17 16 17 17 16 16 15 15 14 13 13 13 13 12 11 11 11 11 10 9 11 11 9 9 8 8 8 6 4 5 6 6 7 8 9 8 8 7 6 6 5 6 6 7 7
9 8 8 8 9 9 7 6 8 8 9 12 14 14 14 15 16 15 15 15 14 14 16 17 16 17 18 18 18 19 21 21 21 21 21 20 19 18 18 18 18 17 18 17 16 16 15 15 14 13 13 12 13 12 11 11 10 10 9 10 10 8 8 9 8 8 7 5 4 4 5 6 6 7 8 7 7 6 6 5 5 6 6 7 7
9 8 8 8 9 10 9 7 7 7 7 11 14 15 14 14 16 16 15 16 16 16 17 17 17 17 17 17 17 19 20 21 21 21 20 20 19 18 18 18 19 19 18 17 16 15 15 15 14 13 11 10 12 10 8 8 8 9 10 11 8 6 10 9 7 7 7 4 4 4 4 5 5 7 7 6 6 6 5 5 5 6 7 7 7
9 8 8 8 9 9 9 9 8 7 7 10 13 15 15 14 15 15 15 16 17 17 17 16 17 17 17 17 18 19 19 20 21 20 19 19 19 18 18 18 18 19 18 16 15 15 15 14 13 12 11 10 10 7 4 4 5 7 8 7 6 6 8 6 6 6 5 4 4 4 4 4 5 5 5 6 6 6 6 6 6 6 6 7 7
9 8 8 7 9 8 9 10 9 7 6 9 12 11 14 16 15 15 14 15 18 17 17 16 17 17 17 17 18 20 20 19 19 19 18 18 18 17 17 16 16 16 16 15 14 14 14 13 12 12 12 11 8 5 5 5 4 5 6 5 5 6 5 5 6 5 3 4 4 4 4 4 5 5 5 6 6 7 7 7 7 7 7 7 8
9 8 7 7 8 8 8 9 9 9 6 9 12 9 13 16 16 16 14 14 17 16 16 17 17 18 18 18 19 20 20 18 17 17 18 17 16 15 15 16 15 15 15 15 14 14 13 13 13 13 12 8 6 6 6 5 5 5 5 6 6 5 5 4 5 5 3 4 5 4 4 5 5 6 6 6 7 8 9 8 8 8 8 8 8
9 8 8 7 8 8 8 8 9 9 8 9 9 8 12 15 14 16 16 15 15 13 15 17 18 18 18 18 19 19 19 17 16 16 17 15 14 14 14 15 15 15 16 15 14 13 12 12 12 11 8 5 6 7 7 6 6 5 5 6 5 5 5 4 4 5 2 3 5 4 4 5 5 6 7 7 8 9 10 10 9 9 9 9 9
9 9 8 8 7 8 8 8 8 9 9 9 9 8 10 12 13 13 14 16 17 15 15 17 18 18 18 17 18 18 17 17 15 14 14 13 13 15 15 16 15 15 14 14 13 11 10 9 9 8 6 6 6 6 6 7 6 5 5 6 5 5 5 4 4 5 2 3 5 6 4 5 6 7 8 8 9 11 11 11 10 10 10 9 9
10 9 9 8 8 8 8 7 8 9 9 9 9 9 9 10 12 12 12 14 15 15 16 17 17 18 18 17 16 16 16 15 13 11 12 13 14 15 15 15 14 12 11 10 9 9 8 7 6 6 6 6 5 5 5 5 5 5 5 5 5 5 5 5 5 5 4 1 3 6 5 5 7 8 9 9 11 12 12 11 10 10 9 9 9
10 10 9 9 9 8 8 8 8 9 9 9 9 9 10 10 10 12 13 13 14 13 14 15 15 15 17 18 16 14 13 11 10 10 12 14 13 13 13 12 9 8 8 8 8 7 6 5 5 5 5 5 5 5 5 4 4 4 4 5 5 5 5 5 5 4 5 3 2 5 6 6 8 9 10 11 12 12 12 11 10 10 10 10 10
10 10 9 9 9 9 9 8 8 9 9 9 10 10 10 10 10 11 11 12 14 13 13 13 12 12 13 16 15 12 11 11 11 12 13 13 12 11 10 9 7 7 7 7 6 6 5 4 5 5 4 5 4 4 5 4 4 4 4 4 4 5 4 4 5 5 4 3 2 5 6 7 8 10 10 11 11 11 11 10 10 10 10 10 10
10 10 10 9 10 9 9 8 8 10 10 9 10 11 10 11 10 10 11 12 13 13 13 13 13 14 13 14 15 12 12 13 13 13 14 13 12 10 8 8 8 7 6 6 5 5 4 4 6 6 5 4 4 4 4 4 4 4 4 4 4 4 4 4 5 5 4 4 4 4 5 7 9 10 11 11 11 10 10 10 10 10 10 10 10
10 10 10 10 10 10 10 9 8 9 11 9 10 10 10 10 10 10 11 12 11 12 13 14 15 16 15 14 15 15 15 16 15 14 13 12 11 10 9 8 7 6 6 6 6 6 5 5 5 5 5 4 3 3 3 4 4 4 4 4 4 4 4 5 5 5 4 4 5 4 3 6 9 10 10 10 10 10 10 9 10 10 9 10 11
11 10 10 11 10 10 10 9 8 9 10 9 9 10 9 10 10 10 11 11 11 12 12 14 15 16 15 14 16 17 16 17 17 14 12 12 11 10 9 7 7 7 7 7 6 5 4 4 3 3 3 3 3 3 3 4 3 3 4 4 4 4 3 4 4 4 5 4 4 4 3 4 8 9 10 10 9 9 9 9 10 10 10 10 11
11 11 11 11 10 10 10 10 9 10 10 10 10 10 9 10 10 10 12 11 11 11 12 12 13 14 16 16 16 17 16 16 16 13 11 11 9 9 9 8 9 7 6 8 6 4 5 5 3 3 3 3 3 3 4 3 3 3 3 4 4 4 3 4 4 4 5 4 3 4 4 3 3 5 7 7 8 9 8 9 10 10 10 10 11
11 11 12 11 10 10 10 10 11 10 9 10 11 11 10 10 10 10 11 12 11 11 12 12 12 13 14 15 16 16 15 15 15 14 10 9 9 8 8 9 9 6 6 9 8 4 5 5 3 3 3 3 3 3 4 3 3 4 3 4 4 4 4 3 3 3 4 4 3 4 4 4 3 3 5 4 5 9 9 9 10 10 10 10 11
12 12 12 11 11 11 10 11 11 11 10 10 10 11 11 11 11 10 10 11 10 11 12 12 12 12 12 14 15 14 14 13 15 15 10 7 8 7 7 9 7 6 6 7 6 4 4 5 4 3 3 2 2 3 3 3 4 4 4 5 3 2 3 2 2 4 4 3 3 4 3 2 2 4 5 3 2 5 7 9 10 10 10 11 11
12 13 12 11 11 10 11 11 12 11 11 11 10 10 11 12 10 9 10 10 9 10 11 11 12 12 12 14 14 13 13 13 13 15 11 7 8 7 8 9 6 6 7 4 3 3 4 4 3 4 3 1 2 2 2 3 3 3 4 4 3 2 2 2 4 4 3 3 3 4 4 1 2 2 3 2 1 3 4 7 10 11 11 11 11
13 13 12 12 11 10 11 12 12 12 11 11 11 10 11 11 9 9 10 10 9 10 11 10 11 11 11 12 14 13 12 12 12 13 12 8 7 7 8 8 7 7 7 6 5 3 3 5 2 4 4 2 2 2 3 3 1 3 4 4 3 3 3 2 3 3 2 3 3 4 4 3 2 1 2 3 2 2 2 4 7 8 9 11 11
13 14 14 12 12 11 12 13 12 12 11 11 11 10 10 10 9 9 9 9 9 9 10 10 10 10 10 11 12 12 11 12 11 11 12 9 7 7 8 8 6 7 8 6 4 3 5 4 3 4 4 2 3 2 2 2 1 3 4 4 4 3 3 2 3 3 2 4 3 3 4 4 3 2 2 3 2 1 2 4 6 3 4 8 10
14 15 14 13 13 12 12 13 13 12 11 12 11 11 10 10 10 9 8 8 9 9 9 9 9 9 10 11 10 10 10 11 11 10 11 11 9 8 9 9 5 6 8 6 3 5 6 4 4 4 4 2 2 2 2 3 3 5 4 4 4 3 3 3 3 4 3 4 3 2 4 4 3 3 3 4 4 2 3 5 4 1 1 5 7
16 15 15 14 13 13 12 13 13 12 12 12 12 11 10 10 9 9 9 8 9 9 9 9 9 9 10 11 10 10 10 10 11 10 10 10 9 8 9 10 7 6 8 7 4 6 7 5 3 3 3 2 2 2 4 4 2 4 5 5 5 4 3 2 3 4 4 4 4 3 3 4 4 4 4 4 3 3 3 4 1 2 1 3 3
17 16 15 15 14 14 13 13 13 13 12 12 12 11 11 10 9 9 8 9 9 8 9 9 9 9 10 10 9 10 10 10 10 10 10 9 9 7 7 8 7 6 6 6 5 6 7 6 3 2 3 3 2 2 4 4 2 3 5 5 6 5 3 3 3 3 4 3 5 4 3 4 4 4 4 4 4 4 3 2 1 2 1 3 0
17 17 16 16 15 15 15 15 14 13 13 13 13 12 12 13 13 11 9 10 10 9 10 10 9 10 10 10 9 9 10 10 10 10 9 9 10 8 6 6 6 7 5 5 5 5 5 4 3 4 5 4 3 3 3 3 5 5 3 3 5 4 4 4 4 4 3 3 4 4 3 4 5 3 3 4 4 4 3 0 4 2 2 3 3
18 18 18 17 16 15 15 15 15 14 13 13 13 12 13 16 16 15 14 14 12 10 11 11 11 11 10 10 9 10 10 9 10 9 8 10 11 10 8 6 5 6 5 4 4 3 2 2 3 3 4 4 3 3 4 2 4 5 3 3 3 2 2 3 4 4 2 3 4 3 3 4 5 2 2 4 3 3 3 2 7 4 3 5 4
19 18 18 17 16 16 15 15 15 15 13 13 14 13 13 14 15 15 15 15 12 11 11 12 12 12 11 10 9 10 10 9 10 10 9 10 10 10 10 7 4 4 5 5 4 3 4 2 2 3 2 2 2 3 4 3 4 5 4 4 3 2 1 2 2 3 1 1 3 3 3 4 4 2 2 4 3 3 4 2 5 2 1 4 4
18 18 18 17 16 16 16 15 15 15 14 14 14 13 13 13 12 12 13 12 12 10 10 11 11 10 11 11 9 10 10 9 9 10 10 10 9 9 9 7 4 3 3 5 4 1 4 3 2 3 2 3 4 2 3 4 3 3 3 3 1 0 0 1 0 3 2 1 2 4 4 4 4 3 3 3 3 3 3 1 1 1 1 2 4
18 18 18 18 17 17 17 16 15 15 14 14 15 14 13 13 12 12 11 10 11 10 9 10 10 9 10 10 9 9 10 10 9 10 10 9 9 8 7 7 6 5 4 4 4 1 1 3 4 4 3 4 4 2 4 6 3 2 3 2 1 1 1 0 0 1 2 2 2 3 3 3 4 2 2 2 3 2 2 2 1 2 1 2 7
18 18 18 18 18 18 17 17 15 15 15 15 15 15 13 13 13 12 12 10 9 11 10 9 10 10 10 10 9 9 10 11 10 10 9 9 9 8 7 7 7 6 4 3 3 3 4 5 3 2 2 3 3 2 4 5 3 1 2 1 1 2 2 2 2 1 0 1 3 3 2 2 3 2 1 1 1 1 1 2 4 4 0 2 5
18 18 17 18 18 18 18 18 17 15 15 15 15 15 14 14 13 12 13 11 9 11 11 10 11 12 11 12 12 10 9 10 10 9 10 9 9 9 7 7 6 6 5 4 4 4 4 4 2 2 3 3 3 3 3 3 1 1 1 2 2 1 1 2 2 1 1 2 3 3 3 3 3 2 2 3 2 2 2 3 5 3 1 3 4
18 17 17 18 18 18 18 18 18 16 15 16 15 15 15 14 14 13 13 12 11 11 11 11 12 12 11 11 11 10 8 8 9 9 10 9 9 9 7 6 6 5 5 5 4 4 3 2 2 4 4 3 4 4 4 3 3 3 2 3 4 3 2 3 3 2 2 3 4 5 3 2 3 3 3 3 4 4 4 4 4 3 3 4 6
Wind_Direction
123 122 119 119 116 114 114 113 114 113 113 115 116 116 120 122 120 116 110 105 106 108 110 112 112 112 111 113 115 114 113 112 108 101 97 97 100 101 103 105 106 103 100 100 97 94 98 102 103 102 101 100 101 101 100 99 96 98 100 98 96 94 95 95 94 92 90 89 89 88 87 86 86 88 89 87 84 84 84 85 84 82 82 83 83
124 123 120 121 118 115 113 113 113 113 114 115 116 115 113 108 107 106 105 105 106 108 110 110 110 109 110 113 114 114 113 112 108 102 97 98 99 100 102 105 106 106 107 104 99 97 101 106 105 104 102 101 101 101 101 99 96 98 100 99 97 96 96 95 93 91 89 88 87 87 86 83 83 84 84 84 83 84 85 84 83 83 83 83 83
125 122 121 123 119 116 113 112 111 110 110 109 110 111 108 104 106 106 107 109 110 110 109 111 111 113 115 116 116 114 112 111 111 108 104 102 100 100 102 105 106 107 109 107 101 99 104 108 107 106 104 103 102 100 99 98 96 96 99 100 98 98 98 97 94 92 89 87 85 85 86 84 83 83 83 83 83 84 85 84 84 85 85 84 84
123 122 122 120 118 117 114 109 107 109 109 108 108 108 107 107 109 110 111 112 116 118 120 119 118 122 122 121 120 115 113 111 111 112 111 108 104 103 104 105 106 109 110 108 105 102 104 109 109 106 106 106 103 101 99 97 97 97 99 100 99 99 99 97 94 94 91 86 84 84 83 84 85 83 84 84 83 84 85 85 84 83 83 83 83
120 121 120 116 118 118 114 110 108 109 108 107 107 106 106 108 108 107 110 115 121 125 130 130 128 128 126 125 123 121 117 112 113 117 116 110 106 105 105 106 109 111 110 108 107 104 102 108 112 106 106 108 105 102 99 98 99 100 100 101 101 100 99 96 93 91 90 87 85 85 84 84 84 83 83 83 82 82 84 84 83 81 81 80 81
119 121 120 118 120 118 115 112 112 109 108 109 108 110 111 112 112 111 116 125 128 128 132 133 133 131 129 127 125 128 124 120 120 121 115 108 108 108 107 110 113 113 112 109 106 103 101 105 112 107 105 108 106 102 99 100 101 101 103 104 102 101 100 97 93 89 87 85 84 86 85 83 83 82 82 81 81 79 81 82 82 81 79 79 77
120 123 122 123 121 120 119 115 116 113 113 118 119 121 118 115 114 117 123 130 132 131 131 131 132 133 137 135 131 132 130 129 124 117 111 108 111 110 111 114 115 114 113 111 106 105 103 104 113 112 105 107 105 102 101 101 101 102 103 104 103 100 97 97 97 94 90 86 84 85 83 82 82 82 81 81 81 80 78 78 80 81 80 80 78
122 123 124 129 125 125 123 117 117 118 122 126 126 126 121 117 115 117 124 131 132 128 129 132 135 135 142 143 138 136 134 134 126 117 112 113 112 110 115 117 115 116 115 110 106 107 109 112 117 114 105 105 105 103 103 101 102 104 104 103 101 98 95 96 95 93 93 91 88 85 83 81 79 82 84 83 84 85 84 81 79 79 80 80 79
124 122 126 132 125 124 119 115 117 123 128 125 125 124 119 114 113 120 130 133 126 125 134 144 146 140 146 149 144 140 140 136 126 121 118 116 114 113 116 118 118 117 114 106 103 106 112 117 117 112 105 105 104 103 102 101 104 104 104 102 100 98 94 94 90 88 88 89 90 88 85 82 78 83 88 85 84 85 85 85 80 78 78 78 77
124 122 126 126 123 121 115 114 118 123 122 117 118 113 110 109 112 121 129 129 121 126 137 145 148 143 147 149 145 142 141 134 123 122 123 121 118 117 118 122 121 116 111 103 102 106 111 115 114 111 106 105 103 102 102 101 102 104 103 100 98 94 91 91 89 88 89 88 88 87 85 83 80 84 88 86 84 82 80 82 83 80 76 74 73
123 123 126 126 123 118 114 117 119 117 110 108 107 103 104 106 107 114 120 122 118 124 134 138 143 143 148 149 144 141 139 133 128 128 127 125 121 121 124 124 119 116 112 106 106 109 112 113 111 108 106 105 104 102 101 100 101 102 101 99 97 94 93 91 89 89 93 92 87 82 83 81 81 87 90 87 86 87 85 85 84 81 77 74 71
123 124 129 126 120 115 115 115 110 106 104 100 98 97 98 97 99 106 111 114 116 126 134 132 133 138 145 145 139 137 137 134 133 132 129 128 125 124 127 125 120 119 117 113 114 115 115 115 112 108 105 104 104 103 101 101 101 101 101 100 99 99 97 90 89 91 93 92 89 86 83 78 80 90 91 87 86 86 86 86 84 81 77 74 70
125 124 126 121 117 117 115 112 104 97 97 96 94 94 93 94 98 105 112 116 122 128 126 119 120 127 134 136 132 133 138 139 137 132 131 131 128 126 127 127 125 124 123 119 119 118 117 117 116 111 106 103 102 103 104 103 102 102 104 102 101 98 94 92 91 89 88 87 88 89 82 77 82 91 90 87 86 85 85 84 82 78 74 70 67
124 123 125 122 121 119 112 107 103 98 98 97 98 99 98 98 101 110 118 119 119 120 116 116 123 129 134 134 132 134 139 142 136 130 131 131 128 125 127 130 129 130 127 122 121 120 121 120 118 113 108 105 106 107 106 104 101 101 101 105 107 96 85 92 98 92 88 86 85 82 76 79 86 90 90 89 87 85 85 82 77 72 68 65 63
125 128 130 123 119 116 107 100 101 103 105 103 101 100 100 101 103 108 111 110 108 108 111 121 132 134 136 135 134 136 137 138 132 128 129 128 126 124 126 131 130 131 127 123 124 124 124 121 117 113 106 107 111 111 108 105 101 101 100 102 108 103 95 91 95 93 90 88 86 79 72 80 91 93 92 92 91 88 85 81 75 70 68 67 64
132 135 125 115 113 108 102 101 105 109 107 103 99 97 96 96 93 96 100 102 102 104 112 126 132 128 129 131 132 135 134 133 128 125 125 125 125 122 125 131 131 130 127 125 125 123 122 117 115 110 105 108 111 110 109 106 103 102 102 101 102 104 100 89 85 92 96 94 90 84 79 83 93 94 94 94 91 88 86 82 77 74 73 73 69
142 133 116 111 107 105 107 109 107 107 107 101 99 101 98 93 92 96 101 103 104 106 113 122 124 120 123 126 127 131 129 127 125 121 122 123 123 121 123 129 133 131 128 125 122 120 119 116 114 110 109 114 113 112 109 105 105 103 103 103 103 101 96 91 90 94 94 92 91 90 89 89 93 95 95 94 89 86 84 81 78 77 77 75 73
136 124 120 116 108 109 110 112 109 106 106 104 106 107 101 95 96 100 97 97 103 108 113 115 115 115 119 123 125 126 124 124 123 122 122 122 121 120 121 126 131 131 128 125 121 118 116 115 115 117 119 119 115 111 108 106 104 103 104 102 103 102 98 96 91 83 78 77 84 93 95 96 98 97 95 92 87 83 80 78 77 75 76 77 76
119 113 121 113 112 120 107 104 107 105 103 105 108 103 96 93 93 95 92 93 99 106 109 110 111 112 116 121 120 120 122 123 121 121 122 121 120 119 121 125 128 128 126 121 117 115 115 118 121 124 124 119 115 111 109 105 102 105 104 101 102 98 93 93 93 87 83 82 84 95 102 100 98 95 93 89 83 80 77 74 73 74 76 78 78
120 115 116 105 106 114 107 107 106 101 102 105 106 100 96 93 90 90 90 93 98 104 106 108 110 111 115 117 116 118 121 120 118 120 120 118 117 116 120 122 122 122 119 116 115 116 119 122 123 122 119 115 110 109 106 102 104 107 104 104 99 89 86 91 95 94 96 99 93 96 102 97 94 92 90 84 79 78 75 72 70 72 75 76 76
126 122 116 108 102 100 102 106 100 100 107 108 107 104 101 99 94 92 93 96 100 103 105 105 107 112 116 115 115 118 117 115 116 119 118 115 115 117 120 121 121 120 118 120 121 123 124 121 120 118 114 110 104 100 99 100 101 99 99 99 87 82 88 88 89 91 93 95 86 96 101 95 93 91 88 82 80 77 72 70 67 71 75 76 74
131 129 120 119 116 111 107 94 93 101 108 106 107 106 102 101 98 94 96 101 105 103 104 104 106 113 116 117 117 118 116 115 117 118 117 116 116 119 121 123 125 125 125 127 127 126 123 120 119 116 111 108 102 95 93 94 94 96 92 84 79 85 91 87 88 91 92 90 83 94 96 94 94 89 86 83 80 75 69 67 66 72 75 76 76
136 135 130 126 122 119 120 114 107 108 115 111 109 108 103 101 100 97 94 98 106 109 108 109 110 113 115 119 121 120 120 118 118 118 118 118 119 121 123 125 126 126 127 128 127 124 122 119 115 111 112 109 99 90 89 86 82 83 76 73 80 86 81 83 86 88 94 86 72 83 87 90 90 89 88 86 81 73 70 68 71 78 81 84 85
138 137 136 131 126 125 125 125 124 122 128 119 110 110 110 106 100 95 90 94 105 108 111 113 113 115 117 120 122 123 121 119 118 119 119 117 116 118 120 121 123 125 127 125 124 120 117 113 108 108 109 103 95 95 102 93 70 63 66 72 84 80 74 83 89 90 98 72 57 70 74 80 83 86 89 87 83 78 77 77 81 85 88 92 93
137 135 137 135 129 129 127 125 127 123 124 112 105 113 116 107 99 95 89 93 102 103 105 111 115 118 120 122 126 125 122 119 119 120 119 117 116 117 117 117 120 123 125 123 122 118 114 110 107 102 91 86 93 108 103 94 86 75 84 88 82 83 84 90 90 91 92 60 52 56 62 69 73 82 91 89 89 90 89 90 93 92 91 93 94
139 136 139 137 131 130 128 128 127 122 121 110 107 119 114 104 106 111 107 99 99 97 101 110 116 120 123 126 129 126 123 120 119 120 118 118 119 118 118 119 120 122 124 123 122 120 115 110 101 87 79 82 100 113 104 98 99 88 93 91 83 88 89 89 88 92 90 53 47 49 62 71 75 86 93 97 102 102 100 99 98 97 95 93 92
140 141 141 138 136 132 130 129 125 121 120 110 104 104 102 106 113 114 116 116 109 100 104 113 116 117 120 124 127 125 123 121 121 121 117 117 121 121 123 123 121 123 124 122 124 124 117 109 95 82 85 105 103 101 100 100 101 91 87 90 89 88 89 93 93 94 71 26 52 58 63 75 84 93 100 110 111 108 104 102 100 99 98 94 89
143 144 142 141 142 135 134 132 124 120 117 110 103 94 92 106 112 107 115 123 123 119 115 117 117 117 119 123 125 124 123 122 122 122 120 121 124 125 126 124 124 125 125 125 126 120 106 99 94 93 106 110 99 95 90 88 93 94 91 90 91 88 90 94 95 99 73 15 51 61 67 85 95 102 112 116 112 107 103 101 100 98 94 89 84
145 145 143 143 144 140 135 130 126 120 115 112 110 108 103 105 110 113 116 113 119 126 123 120 122 126 128 125 122 122 122 121 121 125 126 125 124 124 125 126 126 121 118 117 111 102 95 94 97 99 102 98 99 105 95 89 93 94 92 92 92 88 88 93 94 102 106 77 44 59 78 96 105 115 118 115 110 106 103 101 98 94 89 84 80
146 145 144 144 145 143 135 133 133 122 116 116 115 115 114 112 114 117 115 114 118 121 121 118 121 129 130 126 121 118 117 119 126 130 130 126 122 123 124 122 117 110 108 105 98 96 97 95 88 82 84 87 94 104 102 104 102 96 99 98 96 91 91 96 92 93 105 111 52 66 90 106 114 118 114 111 109 104 102 99 94 89 85 81 76
147 146 143 146 146 143 139 141 140 127 121 123 122 120 118 119 119 115 115 120 120 118 119 120 121 125 125 123 116 109 114 127 133 134 132 125 119 121 121 117 114 111 105 98 95 97 97 98 99 89 82 87 93 101 102 108 108 103 101 99 101 99 99 103 95 94 102 116 106 76 89 110 116 114 111 108 104 101 99 95 90 84 80 78 73
150 148 144 147 146 145 142 141 143 132 123 123 123 122 121 119 117 117 117 116 116 119 122 125 130 129 129 128 121 123 134 135 132 132 130 124 121 123 123 121 118 113 106 105 109 103 97 109 114 104 92 92 95 105 111 108 106 109 107 103 107 100 96 100 103 108 97 93 106 86 85 109 113 108 107 103 98 96 93 87 83 79 77 75 70
151 149 147 148 145 146 143 140 149 134 123 127 126 122 122 118 117 119 116 112 114 120 124 130 134 132 132 134 135 139 142 137 133 130 128 127 127 126 127 126 120 120 124 124 113 97 89 93 95 88 89 97 98 107 121 112 104 107 109 106 106 102 98 93 98 115 101 81 99 103 92 106 109 106 101 96 91 86 83 82 78 75 74 70 67
151 150 151 150 146 147 144 144 151 135 127 135 129 125 125 119 119 122 117 114 117 120 125 129 131 132 132 133 136 136 137 136 131 127 130 132 132 131 132 133 130 130 129 119 104 102 112 105 100 97 95 107 114 111 116 115 109 107 111 109 109 107 110 104 103 119 121 115 116 119 114 95 100 101 95 87 82 79 75 76 74 69 69 68 67
153 153 153 151 149 149 146 148 150 142 140 142 133 128 125 121 122 124 120 118 119 119 121 124 128 133 132 132 134 133 135 135 129 129 133 131 132 134 135 139 133 127 132 130 128 143 131 114 119 118 106 112 116 115 115 117 115 115 111 109 108 97 104 116 114 124 124 125 132 137 143 124 97 91 88 75 69 73 70 69 71 67 66 68 70
156 155 155 153 151 150 148 149 149 147 148 147 142 137 131 129 129 125 123 120 121 122 123 126 129 133 135 135 135 133 136 137 132 131 130 132 136 137 144 144 131 131 156 138 127 145 131 124 134 105 109 125 124 125 119 115 115 123 126 123 118 101 111 116 102 130 132 122 133 139 137 140 147 118 99 81 56 63 65 65 66 64 66 71 71
157 157 156 154 154 152 148 149 150 150 153 152 149 146 140 136 129 126 125 120 123 127 127 131 133 136 142 142 140 138 139 141 136 129 127 139 138 136 148 140 129 148 156 124 113 142 136 133 138 109 109 108 114 133 127 128 126 125 133 131 128 103 114 128 100 127 137 132 145 137 128 117 91 72 77 84 38 42 59 68 67 66 68 69 66
159 159 158 157 157 153 150 151 151 152 157 156 149 149 145 135 129 135 134 125 127 131 130 135 136 138 147 146 142 142 143 144 141 134 131 140 137 140 151 141 139 147 138 116 126 159 134 118 134 131 127 84 90 117 116 130 135 133 140 139 146 116 95 125 122 128 137 132 146 142 137 109 47 43 64 118 113 19 49 70 68 67 65 64 61
163 163 159 159 158 155 156 155 151 153 161 160 151 150 148 137 134 144 140 132 134 137 137 139 138 142 152 149 141 143 146 147 149 142 136 138 140 150 154 143 145 145 141 145 142 154 134 115 128 126 116 110 90 93 110 116 124 121 123 130 148 136 111 127 134 138 164 141 146 153 142 128 144 146 81 100 92 13 49 85 69 56 52 58 59
165 165 161 162 160 157 162 159 153 158 166 163 153 151 150 144 146 151 146 141 142 143 143 144 143 150 162 156 145 147 150 151 156 150 141 141 144 155 155 139 146 153 140 127 116 139 139 121 130 108 84 96 96 102 127 112 130 115 110 123 134 150 144 140 156 166 170 153 157 175 153 130 139 158 76 94 124 37 61 79 71 46 26 52 54
167 167 165 166 163 161 166 161 157 163 166 162 158 157 159 156 155 156 152 152 153 148 148 148 148 162 171 161 152 153 155 156 158 157 152 150 152 164 160 140 144 160 140 124 123 143 132 112 117 103 69 69 88 111 126 106 131 132 129 141 132 146 149 133 170 186 179 169 163 142 151 149 137 140 119 113 131 113 54 49 61 181 352 47 34
170 170 169 170 166 166 167 162 164 167 163 164 165 163 165 162 158 159 156 158 158 151 153 155 155 173 175 162 160 160 159 159 157 158 159 154 155 169 165 147 148 169 151 140 149 142 127 103 79 86 83 73 56 98 138 138 154 152 144 144 137 138 154 167 185 189 184 174 166 145 150 162 137 126 127 104 102 105 71 51 46 247 67 67 6
172 172 172 172 168 170 170 167 170 169 166 171 172 167 166 162 158 163 159 158 159 153 156 157 158 172 174 168 169 167 163 163 161 162 160 157 161 165 162 154 157 167 151 135 138 129 118 105 82 101 107 95 80 99 137 129 106 145 150 149 151 136 143 194 183 169 173 168 171 165 154 150 130 134 149 126 116 130 150 155 159 254 41 94 11
175 174 175 175 171 175 176 173 174 172 173 175 174 172 172 167 163 163 156 153 158 157 156 156 158 164 169 174 172 165 164 165 168 166 165 171 167 154 157 175 173 158 141 124 123 114 108 114 130 125 94 89 111 112 119 115 112 132 157 167 164 147 137 161 154 142 153 172 178 165 156 156 133 139 159 140 139 154 183 163 56 39 352 38 38
176 176 177 177 175 180 181 178 177 175 177 178 175 177 176 171 169 167 160 158 161 161 159 159 162 162 165 171 169 162 160 166 173 167 173 183 171 160 167 187 184 153 133 113 108 126 133 118 133 119 73 80 119 125 111 117 133 130 140 148 133 121 118 121 140 144 146 162 160 148 165 170 144 143 166 143 146 151 176 338 19 22 347 13 14
178 178 178 178 176 180 183 180 178 176 179 182 179 178 175 172 174 174 170 166 163 164 168 167 165 162 162 167 168 163 159 169 177 169 179 186 175 175 171 168 185 161 148 148 153 170 151 124 130 123 87 106 122 129 118 111 124 114 117 133 100 51 44 22 128 149 145 150 158 166 179 183 162 157 170 162 164 158 174 281 350 360 5 17 1
180 179 178 179 176 179 183 182 179 177 180 183 182 179 176 175 173 171 173 168 160 166 175 169 161 153 155 162 168 170 163 167 181 178 184 184 177 185 175 159 180 200 177 162 161 149 122 142 195 162 170 155 118 115 138 134 136 124 121 138 127 7 88 351 167 150 165 243 222 186 170 187 196 179 177 176 163 157 173 218 315 283 211 16 340
181 179 179 179 177 179 182 183 179 177 181 183 181 180 177 177 171 166 171 168 161 169 168 158 153 147 151 157 163 175 165 163 187 190 186 187 182 187 189 173 169 195 212 167 160 236 135 183 207 187 176 153 133 138 150 140 137 160 158 154 208 220 181 133 73 138 172 205 217 189 169 185 190 170 190 193 160 180 239 214 291 326 236 315 332
180 180 180 178 177 180 181 185 183 179 184 186 183 181 181 180 171 166 171 167 166 169 158 150 152 150 156 158 161 178 173 170 190 194 184 191 190 186 195 187 171 186 202 171 179 209 212 218 214 180 176 156 157 177 157 140 115 133 175 206 202 208 256 230 211 267 249 220 216 197 192 205 191 172 236 259 213 238 239 236 331 350 201 298 324
180 178 179 177 177 180 183 186 186 182 185 188 186 184 185 183 173 170 172 166 165 168 163 164 164 161 169 171 172 181 181 178 187 194 189 191 195 190 193 195 186 194 204 193 199 209 216 224 202 192 211 193 185 187 169 164 174 181 197 221 198 193 271 238 228 263 240 240 256 241 213 212 220 220 245 270 265 264 273 283 313 329 278 299 300
181 179 178 177 177 179 184 186 185 185 186 188 189 186 186 185 177 175 175 168 167 169 169 177 175 172 174 177 182 183 180 182 186 198 198 193 202 196 190 208 203 201 216 205 200 217 218 217 222 229 227 206 199 194 190 209 230 233 242 232 221 229 239 234 256 275 259 262 275 273 259 254 269 254 246 266 265 263 274 283 291 300 305 309 303
Height
1549 1550 1552 1553 1554 1553 1555 1555 1556 1557 1558 1558 1559 1560 1560 1561 1560 1560 1560 1561 1561 1562 1562 1563 1563 1562 1562 1563 1563 1564 1565 1565 1565 1565 1565 1566 1565 1565 1565 1566 1565 1566 1566 1566 1566 1566 1567 1567 1568 1568 1569 1570 1570 1571 1571 1571 1571 1572 1572 1572 1572 1572 1573 1573 1573 1573 1573 1572 1572 1572 1572 1572 1572 1573 1573 1573 1572 1572 1572 1572 1573 1573 1573 1573 1573
1550 1551 1552 1553 1554 1554 1555 1556 1557 1558 1558 1560 1560 1561 1561 1561 1560 1560 1561 1561 1562 1562 1562 1563 1563 1563 1563 1563 1564 1565 1566 1566 1565 1565 1565 1565 1566 1566 1566 1566 1566 1567 1567 1567 1568 1568 1568 1569 1569 1569 1570 1571 1571 1572 1572 1573 1573 1573 1573 1573 1574 1574 1575 1575 1575 1575 1574 1574 1574 1574 1574 1574 1574 1574 1574 1574 1574 1574 1574 1574 1574 1574 1574 1575 1574
1550 1552 1553 1554 1554 1554 1556 1557 1558 1558 1559 1560 1560 1561 1561 1562 1561 1561 1561 1562 1562 1562 1563 1563 1564 1564 1564 1564 1565 1565 1566 1566 1566 1566 1566 1566 1566 1567 1567 1567 1567 1568 1568 1568 1569 1570 1570 1570 1570 1571 1571 1572 1572 1573 1573 1574 1574 1574 1575 1575 1576 1576 1576 1576 1576 1576 1576 1576 1576 1575 1575 1576 1576 1576 1575 1575 1575 1575 1575 1575 1575 1576 1576 1576 1576
1551 1552 1553 1554 1555 1555 1556 1557 1558 1559 1560 1560 1560 1561 1561 1562 1561 1561 1561 1562 1562 1562 1563 1564 1565 1565 1565 1565 1566 1566 1566 1566 1566 1566 1566 1567 1567 1567 1568 1568 1569 1569 1569 1570 1570 1571 1571 1571 1572 1572 1572 1573 1574 1574 1574 1575 1575 1576 1576 1577 1577 1577 1577 1577 1578 1577 1577 1577 1577 1577 1577 1577 1577 1577 1577 1577 1577 1577 1577 1577 1577 1577 1577 1577 1577
1552 1553 1554 1555 1556 1557 1557 1558 1559 1560 1560 1561 1561 1561 1561 1561 1561 1562 1562 1562 1562 1563 1564 1564 1565 1565 1566 1566 1566 1567 1567 1567 1567 1567 1567 1568 1568 1568 1568 1569 1569 1570 1570 1571 1571 1571 1572 1572 1573 1573 1574 1574 1575 1575 1576 1576 1576 1577 1577 1578 1578 1578 1578 1578 1579 1579 1579 1578 1578 1578 1578 1579 1579 1579 1579 1578 1578 1578 1578 1578 1578 1578 1578 1578 1578
1553 1554 1555 1555 1557 1557 1557 1558 1559 1560 1560 1561 1561 1561 1561 1561 1562 1562 1562 1563 1563 1564 1564 1565 1565 1566 1566 1566 1567 1567 1567 1568 1568 1568 1568 1569 1569 1569 1569 1570 1570 1571 1571 1572 1572 1572 1573 1573 1574 1575 1575 1576 1576 1576 1577 1577 1578 1578 1578 1579 1579 1579 1579 1580 1580 1580 1579 1580 1580 1579 1579 1580 1580 1580 1580 1580 1580 1580 1579 1579 1579 1579 1579 1579 1579
1555 1555 1556 1556 1557 1558 1558 1558 1560 1561 1561 1561 1561 1561 1562 1562 1562 1562 1563 1563 1564 1564 1565 1565 1565 1566 1567 1567 1568 1568 1568 1568 1568 1569 1569 1570 1570 1570 1570 1571 1571 1572 1572 1573 1573 1574 1574 1574 1575 1576 1576 1577 1577 1577 1578 1578 1579 1579 1580 1580 1580 1580 1580 1581 1581 1581 1580 1580 1581 1580 1581 1581 1581 1581 1581 1581 1581 1581 1581 1581 1580 1581 1581 1581 1581
1556 1557 1557 1557 1557 1558 1558 1559 1560 1561 1561 1562 1562 1562 1563 1563 1563 1563 1564 1564 1565 1565 1565 1565 1566 1566 1567 1567 1568 1568 1568 1568 1568 1569 1570 1570 1570 1570 1571 1572 1572 1573 1573 1573 1574 1574 1575 1576 1577 1577 1578 1578 1578 1579 1579 1580 1580 1580 1581 1581 1581 1581 1581 1582 1582 1582 1582 1582 1582 1582 1582 1582 1582 1582 1582 1582 1582 1582 1582 1582 1582 1582 1582 1582 1582
1557 1558 1558 1557 1557 1559 1559 1560 1561 1561 1562 1563 1563 1563 1564 1564 1564 1564 1564 1565 1565 1565 1565 1565 1565 1566 1566 1567 1568 1568 1568 1569 1569 1570 1571 1571 1571 1571 1572 1573 1573 1573 1574 1574 1575 1575 1576 1577 1578 1579 1579 1579 1580 1580 1581 1581 1581 1582 1582 1582 1582 1582 1582 1583 1583 1583 1583 1583 1583 1583 1583 1583 1583 1583 1583 1583 1583 1583 1583 1583 1583 1583 1583 1583 1583
1558 1558 1558 1558 1558 1559 1560 1561 1561 1562 1563 1563 1564 1564 1564 1564 1564 1564 1564 1565 1565 1565 1565 1565 1566 1566 1566 1567 1568 1569 1569 1569 1570 1571 1571 1571 1571 1572 1573 1573 1574 1574 1575 1575 1576 1576 1577 1578 1579 1580 1580 1581 1581 1582 1582 1582 1583 1583 1583 1583 1583 1583 1583 1584 1583 1584 1584 1584 1584 1584 1584 1584 1584 1584 1584 1584 1584 1584 1584 1584 1584 1584 1584 1584 1584
1558 1559 1559 1558 1559 1560 1560 1561 1562 1563 1564 1564 1564 1565 1565 1565 1564 1564 1564 1565 1565 1565 1565 1565 1566 1566 1567 1567 1568 1569 1569 1570 1570 1571 1571 1571 1572 1572 1573 1574 1575 1575 1576 1576 1577 1578 1579 1580 1580 1581 1582 1582 1583 1583 1584 1584 1584 1584 1584 1584 1584 1584 1584 1585 1584 1585 1585 1585 1585 1585 1585 1585 1585 1585 1585 1585 1585 1585 1585 1585 1585 1585 1585 1585 1585
1558 1559 1559 1559 1560 1561 1561 1562 1563 1564 1564 1565 1565 1565 1565 1565 1565 1564 1564 1565 1565 1565 1565 1566 1566 1567 1567 1567 1568 1569 1569 1570 1570 1571 1571 1572 1572 1573 1573 1574 1575 1576 1577 1578 1579 1579 1580 1581 1582 1582 1583 1584 1584 1585 1585 1585 1585 1585 1585 1585 1585 1585 1585 1585 1586 1586 1586 1586 1587 1587 1586 1586 1586 1586 1586 1586 1586 1586 1586 1586 1586 1586 1586 1586 1586
1559 1560 1559 1560 1561 1561 1562 1563 1564 1564 1565 1566 1566 1566 1566 1566 1565 1565 1565 1565 1565 1565 1565 1566 1566 1567 1567 1568 1568 1569 1570 1570 1571 1571 1572 1572 1573 1573 1574 1575 1576 1577 1578 1579 1580 1581 1581 1582 1583 1583 1584 1585 1586 1586 1586 1586 1586 1586 1585 1585 1585 1586 1586 1586 1587 1587 1587 1587 1588 1588 1587 1587 1587 1587 1587 1587 1587 1587 1587 1587 1587 1587 1587 1587 1587
1560 1561 1560 1560 1561 1562 1563 1564 1565 1565 1566 1566 1567 1567 1567 1567 1566 1565 1565 1564 1564 1565 1565 1565 1566 1566 1567 1568 1569 1569 1570 1570 1571 1572 1573 1573 1573 1574 1575 1576 1577 1578 1579 1580 1581 1582 1583 1584 1584 1585 1585 1586 1587 1587 1587 1587 1587 1587 1586 1586 1586 1586 1587 1588 1588 1588 1588 1588 1588 1588 1588 1588 1588 1588 1588 1588 1588 1588 1588 1589 1588 1588 1588 1588 1588
1561 1561 1561 1561 1562 1563 1564 1565 1565 1566 1566 1567 1568 1568 1567 1567 1567 1566 1565 1564 1564 1565 1566 1565 1565 1566 1567 1568 1569 1570 1570 1571 1572 1573 1573 1574 1574 1574 1576 1577 1578 1580 1581 1582 1582 1583 1584 1585 1586 1586 1586 1588 1588 1588 1588 1588 1588 1588 1588 1588 1587 1586 1588 1589 1589 1589 1589 1589 1589 1589 1589 1589 1589 1589 1589 1589 1589 1589 1589 1589 1589 1589 1589 1589 1589
1561 1561 1562 1562 1563 1564 1564 1565 1566 1566 1567 1568 1569 1569 1568 1568 1568 1567 1565 1565 1565 1566 1566 1566 1566 1567 1568 1569 1570 1570 1571 1571 1572 1573 1574 1574 1575 1576 1577 1578 1580 1581 1582 1583 1584 1585 1585 1586 1587 1587 1588 1590 1590 1590 1589 1589 1589 1589 1589 1589 1589 1588 1589 1591 1590 1590 1590 1590 1590 1590 1590 1590 1590 1590 1590 1590 1590 1590 1590 1590 1590 1590 1590 1590 1589
1561 1562 1563 1563 1564 1565 1565 1566 1566 1567 1568 1568 1569 1569 1569 1569 1569 1568 1566 1566 1567 1567 1567 1567 1567 1568 1569 1569 1570 1571 1572 1572 1573 1574 1575 1576 1576 1577 1579 1580 1581 1582 1583 1584 1585 1586 1587 1587 1588 1588 1590 1591 1592 1591 1591 1590 1590 1590 1590 1590 1590 1590 1590 1591 1592 1591 1590 1591 1591 1591 1591 1591 1591 1591 1591 1591 1591 1591 1591 1591 1591 1591 1590 1590 1590
1562 1562 1564 1565 1566 1566 1566 1566 1567 1568 1568 1569 1570 1569 1569 1571 1570 1569 1568 1568 1568 1568 1568 1568 1568 1569 1570 1570 1571 1572 1573 1574 1575 1575 1576 1577 1578 1579 1580 1581 1582 1583 1585 1585 1586 1587 1588 1588 1589 1591 1592 1593 1593 1592 1592 1592 1591 1591 1591 1591 1591 1591 1591 1592 1593 1592 1592 1592 1592 1592 1592 1592 1592 1592 1592 1592 1592 1592 1592 1592 1591 1591 1591 1590 1590
1563 1564 1564 1565 1567 1567 1566 1567 1568 1569 1570 1570 1570 1570 1570 1572 1571 1570 1569 1569 1569 1569 1569 1569 1569 1570 1571 1571 1572 1573 1574 1575 1576 1577 1578 1578 1580 1581 1582 1583 1584 1584 1586 1586 1587 1588 1589 1590 1591 1593 1593 1593 1593 1593 1593 1593 1592 1592 1592 1592 1592 1592 1592 1594 1595 1595 1595 1594 1593 1593 1593 1593 1593 1592 1592 1592 1592 1592 1592 1592 1592 1592 1591 1591 1591
1564 1565 1565 1566 1567 1567 1567 1568 1569 1569 1571 1571 1571 1571 1571 1573 1572 1571 1571 1571 1570 1570 1570 1570 1571 1572 1572 1573 1573 1574 1575 1576 1578 1579 1579 1581 1582 1583 1583 1584 1585 1585 1586 1587 1588 1590 1591 1592 1593 1594 1594 1594 1594 1594 1594 1594 1593 1593 1593 1593 1593 1593 1593 1595 1596 1596 1596 1595 1594 1594 1594 1593 1593 1593 1593 1593 1593 1593 1593 1593 1593 1592 1592 1591 1591
1565 1566 1566 1567 1568 1568 1568 1568 1569 1570 1571 1572 1572 1573 1573 1574 1574 1573 1572 1572 1571 1571 1572 1572 1573 1573 1574 1575 1575 1576 1577 1578 1579 1580 1580 1582 1584 1585 1585 1585 1586 1587 1588 1588 1590 1591 1592 1593 1594 1594 1594 1594 1595 1595 1595 1594 1594 1594 1594 1594 1593 1594 1595 1596 1596 1597 1596 1595 1595 1595 1594 1594 1594 1594 1594 1593 1594 1594 1593 1593 1593 1593 1592 1592 1592
1566 1566 1567 1568 1569 1570 1569 1569 1570 1570 1572 1573 1574 1576 1575 1575 1575 1574 1573 1573 1573 1573 1573 1574 1574 1575 1576 1577 1577 1578 1579 1580 1581 1581 1582 1583 1585 1586 1587 1587 1588 1589 1590 1591 1592 1593 1593 1594 1594 1595 1595 1595 1595 1595 1595 1595 1595 1595 1595 1594 1594 1596 1596 1597 1598 1598 1597 1596 1595 1595 1595 1595 1595 1594 1594 1594 1594 1594 1594 1594 1593 1593 1593 1592 1592
1566 1567 1568 1568 1569 1570 1571 1570 1570 1570 1571 1574 1576 1577 1577 1576 1576 1575 1574 1574 1574 1575 1575 1575 1576 1576 1577 1578 1579 1580 1580 1582 1583 1583 1584 1585 1586 1587 1588 1589 1590 1591 1592 1592 1593 1594 1594 1594 1595 1595 1596 1596 1595 1596 1597 1596 1596 1596 1595 1595 1596 1597 1597 1598 1599 1599 1598 1597 1596 1596 1596 1596 1595 1595 1595 1595 1595 1594 1594 1594 1594 1594 1593 1593 1593
1567 1568 1568 1568 1569 1570 1571 1571 1571 1571 1572 1574 1576 1576 1576 1577 1577 1577 1575 1574 1575 1577 1577 1577 1578 1578 1579 1580 1581 1582 1582 1583 1584 1585 1586 1586 1587 1588 1589 1590 1591 1592 1593 1593 1594 1595 1595 1595 1595 1596 1596 1596 1596 1598 1599 1598 1598 1597 1597 1598 1598 1598 1598 1600 1600 1599 1598 1597 1597 1597 1597 1596 1596 1596 1595 1595 1595 1595 1595 1595 1595 1594 1594 1594 1594
1566 1568 1568 1568 1569 1570 1570 1571 1572 1573 1572 1573 1575 1576 1577 1577 1578 1578 1577 1575 1575 1578 1579 1579 1580 1580 1581 1581 1582 1583 1584 1585 1585 1586 1587 1587 1588 1589 1590 1591 1592 1593 1593 1594 1595 1595 1595 1596 1596 1596 1596 1597 1598 1599 1600 1599 1599 1599 1599 1599 1599 1600 1600 1601 1600 1600 1599 1598 1598 1598 1597 1597 1597 1596 1596 1596 1596 1595 1595 1595 1595 1595 1595 1595 1595
1566 1568 1568 1569 1569 1570 1571 1571 1572 1573 1573 1573 1574 1576 1576 1577 1579 1580 1580 1579 1577 1578 1580 1582 1581 1581 1582 1583 1584 1584 1585 1585 1586 1587 1587 1588 1589 1590 1591 1592 1593 1594 1594 1595 1595 1596 1596 1596 1597 1597 1597 1599 1599 1600 1600 1600 1600 1600 1600 1600 1600 1601 1601 1601 1601 1601 1600 1599 1599 1598 1598 1598 1597 1597 1597 1597 1596 1596 1596 1596 1596 1596 1596 1596 1595
1567 1568 1568 1569 1569 1570 1571 1571 1572 1573 1573 1574 1575 1575 1575 1577 1580 1580 1582 1583 1581 1580 1581 1583 1583 1583 1583 1584 1585 1586 1586 1586 1587 1588 1588 1589 1590 1591 1592 1593 1594 1595 1595 1595 1596 1596 1597 1597 1597 1598 1599 1600 1600 1600 1600 1600 1601 1601 1601 1600 1601 1602 1602 1602 1602 1602 1601 1599 1599 1599 1599 1598 1598 1598 1597 1597 1597 1596 1597 1597 1597 1597 1597 1597 1596
1567 1568 1569 1569 1570 1571 1571 1571 1572 1573 1573 1575 1576 1576 1576 1578 1580 1582 1582 1583 1584 1583 1582 1584 1585 1585 1585 1585 1586 1587 1587 1587 1588 1589 1590 1591 1591 1592 1593 1594 1595 1596 1596 1596 1597 1597 1597 1598 1599 1599 1600 1601 1601 1601 1600 1601 1601 1602 1602 1601 1602 1602 1603 1603 1602 1602 1602 1600 1600 1600 1599 1599 1599 1598 1598 1598 1597 1597 1597 1598 1598 1598 1598 1597 1597
1567 1568 1569 1570 1571 1571 1572 1572 1573 1573 1574 1575 1577 1577 1578 1580 1581 1583 1583 1584 1586 1585 1585 1585 1586 1587 1587 1586 1587 1588 1589 1589 1589 1590 1590 1591 1592 1593 1594 1595 1596 1596 1597 1597 1598 1598 1599 1600 1600 1600 1600 1601 1601 1601 1602 1602 1603 1603 1603 1603 1603 1603 1603 1603 1603 1603 1603 1602 1601 1600 1600 1600 1599 1599 1599 1599 1598 1598 1598 1599 1599 1599 1598 1598 1597
1568 1568 1569 1570 1571 1572 1572 1573 1573 1574 1575 1576 1577 1578 1579 1580 1582 1583 1584 1585 1587 1587 1588 1588 1586 1587 1588 1588 1589 1589 1590 1591 1590 1590 1591 1592 1593 1594 1595 1596 1597 1597 1598 1598 1598 1599 1600 1600 1600 1601 1600 1600 1601 1601 1602 1603 1603 1603 1604 1604 1604 1604 1604 1603 1603 1603 1604 1603 1602 1601 1601 1600 1600 1600 1600 1600 1599 1599 1599 1599 1600 1599 1599 1598 1598
1568 1569 1570 1570 1571 1572 1573 1574 1574 1574 1575 1576 1577 1578 1579 1581 1582 1583 1584 1586 1587 1588 1590 1590 1588 1588 1588 1589 1590 1591 1592 1593 1592 1592 1592 1593 1594 1595 1596 1597 1598 1598 1598 1598 1599 1599 1600 1600 1600 1601 1601 1601 1602 1602 1603 1604 1604 1604 1604 1604 1605 1605 1605 1604 1605 1605 1605 1604 1603 1602 1602 1601 1601 1601 1601 1601 1600 1600 1600 1600 1600 1600 1600 1599 1598
1568 1569 1570 1571 1572 1573 1573 1574 1574 1575 1576 1577 1578 1579 1580 1581 1582 1583 1584 1586 1587 1589 1590 1591 1590 1589 1589 1589 1590 1592 1593 1594 1593 1593 1594 1594 1595 1596 1597 1598 1598 1599 1599 1599 1599 1600 1600 1600 1600 1600 1601 1602 1603 1603 1604 1605 1605 1605 1605 1605 1605 1605 1605 1605 1606 1606 1605 1604 1604 1604 1603 1602 1602 1602 1602 1602 1602 1601 1601 1601 1601 1601 1600 1600 1599
1568 1570 1570 1571 1572 1573 1574 1574 1575 1575 1577 1578 1579 1580 1581 1582 1583 1584 1585 1586 1588 1589 1590 1590 1590 1591 1591 1591 1591 1592 1593 1594 1594 1595 1596 1596 1597 1598 1599 1599 1599 1600 1600 1600 1600 1600 1601 1601 1602 1602 1602 1603 1604 1605 1605 1606 1606 1605 1606 1606 1606 1606 1606 1606 1607 1606 1606 1606 1605 1605 1604 1604 1603 1603 1603 1603 1603 1603 1602 1602 1602 1602 1601 1600 1600
1568 1570 1571 1572 1573 1573 1574 1575 1575 1576 1578 1579 1580 1581 1582 1582 1584 1585 1585 1587 1589 1589 1590 1590 1591 1591 1592 1592 1593 1593 1594 1594 1595 1596 1597 1598 1599 1599 1600 1600 1600 1601 1601 1601 1602 1602 1603 1603 1603 1604 1604 1604 1605 1606 1606 1606 1606 1606 1606 1607 1607 1607 1607 1607 1607 1607 1607 1607 1607 1607 1606 1605 1605 1604 1604 1604 1604 1604 1603 1603 1603 1602 1602 1601 1601
1568 1570 1571 1572 1573 1574 1575 1576 1576 1577 1578 1579 1580 1581 1582 1583 1585 1585 1586 1588 1589 1590 1591 1591 1592 1592 1593 1593 1594 1594 1595 1595 1596 1598 1599 1599 1600 1601 1601 1601 1601 1602 1602 1602 1603 1603 1603 1603 1604 1604 1605 1605 1606 1606 1606 1606 1606 1606 1606 1607 1607 1607 1608 1608 1607 1608 1608 1608 1608 1607 1607 1607 1606 1606 1605 1605 1605 1605 1604 1604 1604 1603 1603 1602 1601
1568 1570 1571 1572 1573 1574 1575 1576 1577 1577 1578 1579 1580 1582 1583 1584 1585 1586 1587 1588 1590 1591 1592 1593 1593 1594 1594 1594 1595 1595 1596 1597 1597 1598 1600 1601 1601 1602 1602 1602 1602 1603 1603 1603 1603 1604 1603 1604 1604 1604 1605 1605 1606 1606 1607 1606 1607 1607 1607 1607 1607 1607 1608 1608 1608 1608 1608 1608 1608 1608 1608 1608 1607 1607 1606 1606 1606 1605 1605 1605 1604 1604 1603 1603 1602
1568 1569 1571 1572 1574 1574 1576 1577 1577 1578 1578 1579 1580 1581 1583 1584 1585 1587 1588 1589 1591 1592 1593 1594 1595 1595 1595 1595 1596 1596 1597 1598 1598 1599 1601 1602 1602 1603 1602 1602 1603 1603 1603 1603 1603 1604 1604 1604 1604 1604 1605 1605 1606 1607 1607 1607 1607 1607 1607 1608 1608 1608 1608 1608 1609 1609 1609 1609 1609 1609 1609 1608 1608 1607 1607 1607 1608 1606 1606 1606 1605 1604 1604 1603 1603
1568 1569 1571 1572 1574 1574 1576 1577 1578 1578 1579 1580 1581 1582 1583 1584 1586 1588 1588 1590 1592 1593 1594 1595 1595 1596 1596 1596 1596 1597 1598 1598 1599 1599 1601 1603 1603 1603 1603 1603 1604 1604 1604 1604 1604 1604 1604 1604 1604 1604 1605 1606 1606 1607 1607 1607 1607 1608 1608 1608 1608 1608 1609 1609 1609 1609 1609 1609 1609 1610 1610 1610 1609 1608 1608 1609 1609 1608 1607 1606 1606 1605 1605 1604 1603
1568 1569 1571 1572 1573 1574 1575 1576 1578 1579 1579 1580 1581 1583 1584 1585 1587 1588 1589 1590 1592 1593 1594 1595 1596 1596 1596 1596 1597 1598 1598 1599 1600 1600 1601 1602 1603 1604 1603 1604 1604 1604 1604 1604 1605 1605 1604 1604 1605 1605 1605 1605 1606 1607 1607 1607 1608 1608 1608 1608 1608 1609 1609 1609 1610 1610 1610 1610 1610 1610 1610 1610 1610 1610 1609 1610 1610 1609 1608 1607 1606 1606 1605 1605 1604
1568 1569 1570 1572 1573 1574 1575 1576 1577 1578 1579 1580 1582 1583 1585 1586 1588 1589 1589 1590 1591 1593 1594 1595 1596 1597 1596 1596 1597 1598 1599 1599 1600 1601 1601 1602 1603 1604 1604 1604 1604 1604 1604 1605 1605 1605 1605 1605 1605 1605 1605 1606 1607 1608 1608 1608 1608 1608 1608 1609 1609 1609 1610 1610 1610 1610 1609 1610 1610 1610 1610 1611 1610 1610 1611 1611 1611 1610 1609 1608 1608 1607 1607 1605 1604
1567 1568 1570 1571 1572 1574 1574 1575 1577 1578 1579 1580 1582 1584 1585 1586 1588 1589 1590 1591 1591 1592 1594 1595 1596 1596 1596 1597 1598 1598 1599 1600 1600 1601 1601 1602 1603 1604 1604 1604 1605 1605 1605 1605 1605 1605 1605 1606 1606 1606 1606 1607 1607 1608 1608 1608 1609 1609 1609 1609 1609 1609 1610 1610 1610 1610 1610 1610 1610 1610 1611 1611 1611 1611 1612 1612 1611 1610 1610 1610 1609 1609 1607 1606 1605
1567 1568 1570 1571 1572 1574 1575 1575 1577 1578 1579 1581 1582 1584 1585 1586 1588 1589 1591 1591 1591 1593 1594 1595 1596 1596 1596 1597 1598 1599 1599 1600 1601 1601 1602 1603 1603 1604 1604 1605 1605 1605 1605 1605 1605 1605 1606 1606 1606 1606 1607 1607 1608 1608 1608 1608 1609 1609 1609 1609 1610 1610 1610 1610 1610 1610 1610 1610 1610 1611 1611 1611 1611 1611 1611 1611 1610 1611 1611 1610 1610 1610 1608 1607 1606
1566 1568 1569 1570 1572 1573 1574 1575 1577 1578 1579 1581 1582 1583 1585 1586 1588 1589 1590 1591 1592 1593 1594 1595 1596 1596 1596 1597 1598 1599 1600 1600 1601 1602 1602 1603 1604 1604 1604 1605 1605 1605 1605 1605 1606 1606 1606 1607 1607 1607 1607 1608 1609 1609 1609 1608 1608 1609 1610 1609 1610 1610 1610 1610 1610 1610 1610 1610 1610 1610 1610 1611 1611 1612 1611 1611 1610 1611 1610 1609 1609 1609 1608 1608 1608
1565 1567 1569 1570 1572 1573 1573 1575 1576 1577 1579 1580 1581 1583 1584 1585 1587 1588 1589 1590 1592 1593 1594 1595 1596 1596 1597 1597 1598 1599 1600 1601 1601 1602 1603 1603 1604 1604 1604 1605 1605 1605 1606 1606 1606 1606 1607 1607 1607 1608 1608 1608 1609 1610 1610 1609 1608 1609 1610 1609 1610 1610 1610 1610 1610 1610 1610 1610 1610 1610 1610 1611 1611 1611 1611 1611 1611 1610 1609 1608 1608 1609 1609 1608 1608
1564 1566 1568 1569 1571 1572 1573 1574 1576 1577 1578 1580 1581 1582 1583 1585 1586 1587 1588 1589 1591 1592 1593 1595 1595 1596 1597 1598 1598 1599 1600 1601 1602 1603 1603 1603 1604 1604 1605 1605 1605 1605 1606 1606 1607 1608 1608 1608 1608 1608 1608 1609 1609 1610 1610 1610 1609 1609 1610 1610 1610 1611 1610 1610 1610 1610 1610 1610 1610 1610 1610 1611 1611 1611 1611 1611 1610 1610 1610 1609 1608 1608 1609 1609 1609
1563 1565 1567 1568 1570 1571 1572 1573 1575 1577 1578 1579 1581 1582 1583 1585 1586 1587 1588 1589 1591 1592 1593 1594 1595 1595 1597 1598 1598 1599 1600 1601 1602 1603 1603 1603 1604 1604 1604 1605 1605 1606 1606 1607 1607 1608 1608 1609 1609 1609 1609 1609 1609 1610 1611 1611 1610 1610 1611 1611 1611 1611 1611 1611 1611 1611 1610 1610 1610 1610 1610 1610 1611 1611 1611 1610 1610 1610 1611 1610 1609 1609 1609 1611 1611
1562 1564 1566 1567 1569 1570 1571 1573 1574 1576 1578 1579 1580 1582 1583 1584 1586 1587 1588 1589 1591 1592 1592 1593 1594 1595 1597 1598 1598 1599 1600 1602 1602 1603 1603 1603 1604 1604 1604 1605 1605 1606 1606 1607 1608 1607 1608 1609 1610 1609 1609 1609 1609 1610 1610 1611 1611 1611 1612 1612 1612 1612 1612 1611 1611 1611 1611 1610 1610 1610 1610 1610 1610 1610 1610 1610 1610 1611 1611 1610 1610 1610 1610 1610 1610
1561 1563 1565 1566 1568 1569 1571 1572 1574 1575 1577 1578 1580 1581 1583 1584 1586 1587 1589 1590 1591 1592 1592 1593 1595 1596 1597 1598 1599 1599 1600 1601 1602 1602 1603 1603 1604 1604 1604 1605 1605 1606 1607 1607 1608 1608 1608 1609 1609 1609 1609 1609 1609 1610 1610 1610 1611 1612 1611 1612 1612 1612 1611 1611 1611 1611 1611 1611 1610 1610 1610 1610 1610 1610 1610 1610 1610 1610 1610 1610 1610 1610 1610 1609 1608
1560 1562 1564 1565 1567 1568 1570 1571 1573 1575 1576 1578 1579 1581 1583 1584 1585 1587 1589 1590 1591 1591 1593 1594 1595 1596 1597 1598 1599 1600 1600 1601 1602 1602 1603 1603 1603 1604 1604 1605 1605 1606 1607 1607 1608 1609 1609 1609 1609 1609 1609 1609 1610 1610 1610 1610 1611 1612 1612 1611 1612 1612 1611 1611 1611 1611 1611 1611 1610 1610 1610 1610 1610 1610 1610 1610 1610 1610 1610 1609 1609 1609 1609 1609 1608
1559 1561 1563 1565 1566 1567 1569 1571 1572 1574 1576 1577 1579 1580 1582 1583 1585 1587 1588 1590 1591 1591 1593 1594 1594 1596 1597 1598 1598 1599 1599 1600 1601 1601 1602 1603 1603 1604 1604 1605 1605 1606 1606 1607 1607 1608 1608 1609 1609 1609 1609 1609 1610 1610 1610 1611 1611 1612 1612 1612 1611 1611 1612 1611 1611 1611 1611 1611 1610 1609 1609 1609 1609 1610 1610 1610 1610 1610 1610 1609 1609 1608 1608 1609 1608
1558 1560 1562 1563 1565 1566 1568 1570 1571 1573 1575 1577 1578 1580 1582 1583 1585 1586 1587 1589 1590 1591 1592 1593 1594 1595 1596 1598 1598 1599 1599 1600 1601 1601 1602 1603 1603 1604 1604 1605 1605 1605 1606 1606 1607 1608 1608 1609 1609 1609 1609 1609 1609 1610 1610 1611 1611 1611 1612 1612 1611 1612 1612 1612 1612 1611 1611 1611 1611 1610 1609 1609 1609 1609 1609 1610 1609 1610 1609 1609 1609 1609 1608 1608 1608